Regional Weather Roundup
Issued by NWS

Home | Current Version | Previous Version | Graphics & Text | Print | Product List | Glossary On
Versions: 1 2 3 4 5 6 7 8 9 10 11 12 13 14 15 16 17 18 19 20 21 22 23 24 25 26 27 28 29 30 31 32 33 34 35 36 37 38 39 40 41 42 43 44 45 46 47 48 49 50
000
ASUS43 KIND 260159
RWRIN

WEATHER ROUNDUP FOR INDIANA
NATIONAL WEATHER SERVICE INDIANAPOLIS IN
1000 PM EDT SAT APR 25 2015

NOTE: "FAIR" INDICATES FEW OR NO CLOUDS BELOW 12,000 FEET WITH NO
SIGNIFICANT WEATHER AND/OR OBSTRUCTIONS TO VISIBILITY.

* - STATION DOES NOT REPORT WEATHER SUCH AS PRECIPITATION OR FOG.

+ - STATION NOT QUALITY CONTROLLED BY THE NATIONAL WEATHER SERVICE.
    USE DATA WITH CAUTION...ESPECIALLY DEWPOINT AND RELATIVE
    HUMIDITY OBSERVATIONS.

INZ001>003-010>013-019-020-260300-
NORTHWEST INDIANA

CITY           SKY/WX    TMP DP  RH WIND       PRES   REMARKS
GARY /AIRPORT/ CLOUDY    43  36  75 NE15      29.83R
KNOX *+        CLOUDY    43  32  65 E7        29.79S
MONTICELLO +   CLOUDY    44  41  89 NE15      29.75S

$$

LMZ046-743>745-260300-
SOUTHERN LAKE MICHIGAN

STATION/POSITION TIME  TEMP    WIND        PRES    WAVE
                       AIR SEA DIR/SP/G            HT
                 (UTC) (F)     (DEG/KT/KT) (MB)    (FT)
BURNS HARBOR     0100   41      20/ 15/ 17 1010.2R
MICHIGAN CITY    0100   43     350/ 12/ 14   N/A
5NW MICH CITY    0100   40 45   30/ 14/ 16   N/A     2

$$

INZ004-005-014>016-021>024-260300-
NORTH CENTRAL INDIANA

CITY           SKY/WX    TMP DP  RH WIND       PRES   REMARKS
GOSHEN         CLOUDY    44  34  67 CALM      29.79S
SOUTH BEND     CLOUDY    47  33  58 CALM      29.82R
WARSAW +       CLOUDY    41  34  75 E7        29.80S

$$

INZ006>009-017-018-025>027-260300-
NORTHEAST INDIANA

CITY           SKY/WX    TMP DP  RH WIND       PRES   REMARKS
ANGOLA *+      CLOUDY    43  32  65 CALM      29.79R
FORT WAYNE     LGT RAIN  41  35  79 NE7       29.78R

$$

INZ028-029-035-036-043>045-051>053-260300-
WEST CENTRAL INDIANA

CITY           SKY/WX    TMP DP  RH WIND       PRES   REMARKS
CRAWFORDSVL +  CLOUDY    43  37  79 NE17G24   29.70R
GREENCASTLE +  CLOUDY    45  39  81 NE16G22   29.67R
LAFAYETTE      CLOUDY    44  41  89 NE17G24   29.73R FOG
TERRE HAUTE    LGT RAIN  47  44  90 NE13      29.66R

$$

INZ030>032-037>040-046>048-054>057-064-065-260300-
CENTRAL INDIANA

CITY           SKY/WX    TMP DP  RH WIND       PRES   REMARKS
COLUMBUS       CLOUDY    45  41  87 E15G22    29.64R
FRANKFORT +    CLOUDY    45  41  88 N17G29    29.73R
GREENWOOD *+   CLOUDY    45  39  81 NE16      29.67R
INDIANAPOLIS   CLOUDY    46  40  79 NE16G29   29.65R
-EAGLE CREEK   CLOUDY    45  41  86 NE12G20   29.67R
KOKOMO *+      CLOUDY    43  37  81 NE18G25   29.75R
MT COMFORT *+  CLOUDY    45  43  93 NE13      29.69R
SHELBYVILLE    CLOUDY    47  41  80 NE18G25   29.65R

$$

INZ033-034-041-042-049-050-058-059-260300-
EAST CENTRAL INDIANA

CITY           SKY/WX    TMP DP  RH WIND       PRES   REMARKS
MUNCIE         CLOUDY    43  39  86 NE18G25   29.72R

$$

INZ060-061-067>069-081>083-085>088-260300-
SOUTHWEST INDIANA

CITY           SKY/WX    TMP DP  RH WIND       PRES   REMARKS
EVANSVILLE     CLOUDY    57  54  89 NE7       29.58R
HUNTINGBURG *+ CLOUDY    52  48  87 NE9       29.58R

$$

INZ062-063-066-070>080-084-089>092-260300-
SOUTH CENTRAL AND SOUTHEAST INDIANA

CITY           SKY/WX    TMP DP  RH WIND       PRES   REMARKS
BLOOMINGTON    LGT RAIN  47  44  90 NE10      29.63R
MADISON *+     CLOUDY    45  43  93 NE12      29.62R
SEYMOUR +      CLOUDY    46  46 100 NE10      29.62R

$$




USA.gov is the U.S. government's official web portal to all federal, state and local government web resources and services.